VRSS-2

Satellite information

Favourite Embed

Satellite Type and Status

PAYLOADIN ORBIT

Key statistics

Satellite VRSS-2 at a glance.

Uptime

2942

Days in orbit

Revolutions

≈ 14.8

Per day

Orbit

SSO

Sun Synchronous Orbit

Inclination

97.7

Latest

Satellite identification and parameters

Extended collection of information and parameters for VRSS-2.

Object identification

Identified? True

Debris? False

Object name: VRSS-2

International designator: 2017-060A

Object number (NORAD): 42954

Object ID (CCSDS): 42954

Country: VENEZUELA (VENZ)

Current information (Y/N): Y

RCS size: LARGE

Orbital parameters

Period: 97.255 minutes

Inclination: 97.6854 deg

SMA: 7005.442 km

Apoapsis: 640.129 km

Periapsis: 614.485 km

RAAN: 344.4538 deg

Eccentricy: 0.00183025

Argument of periapsis: 133.7209 deg

Mean anomaly: 226.5523 deg

Mean motion: 14.80639866 rev/day

Mean motion (dot): 0.00001392 rev/day2

B* drag term: 0.00018721817 1/REarth

Two-line elements (TLE)

Creation date: Oct. 28, 2025, 7:11 p.m.

Reference frame: TEME

Reference center: EARTH

Epoch: Oct. 28, 2025, 3:22 p.m. UTC

TLE line 0: 0 VRSS-2

TLE line 1: 1 42954U 17060A 25301.64083512 .00001392 00000-0 18722-3 0 9996

TLE line 2: 2 42954 97.6854 344.4538 0018303 133.7209 226.5523 14.80639866434182

Live tracking on map

Real-time ground track for satellite VRSS-2.

In-orbit conjunctions

There are no conjunctions computed for VRSS-2, at the moment. Check back to stay up to date, as we update our databases every day.

Go to all conjunctions

Associated space launch

VRSS-2 is the second Venezuelan remote sensing satellite. Spacecraft was built by China. Weighing about 1000 kg, it is to operate in sun-synchronous orbit at an altitude of 645 kilometres, providing services in traffic management, disaster warning and prevention, tracking agriculture and land use.

VRSS-2 was lifted into orbit during the mission ‘Long March 2D | VRSS-2 (Antonio José de Sucre)’, on board a Long March 2D space rocket.

The launch took place on Oct. 9, 2017, 4:13 a.m. from Launch Area 4 (SLS-2 / 603).

For more information about the launch, click the button.

Launch to space Long March 2D | VRSS-2 (Antonio José de Sucre)
Long March 2D | VRSS-2 (Antonio José de Sucre)

Agency: N/A

Status: Launch Successful

Launch date: Oct. 9, 2017, 4:13 a.m. UTC

Rocket: Long March 2D

Launch pad: Launch Area 4 (SLS-2 / 603)

Location: Jiuquan Satellite Launch Center, People's Republic of China

...

Latest news about this satellite

There are no fresh news available about this satellite. Check back as we update our databases every day.


Newsletter sign-up

Weekly statistics, charts and insights to help you stay on top of the space industry.